Weather in Beldezh № 3

Russia / Omsk Oblast     54°23′44″N   71°45′43″E
temp.,
°C
wind,
m/s
gust,
m/s
humid.,
%
clouds,
%
prec.,
mm/h
press.,
hPa
HPBL,
m
18 september, sat
sat1800:00+9w81255100 0.0 10021350
03:00+8wnw61071100 0.1 10031122
06:00+7w6972100 0.1 1005973
09:00+7w796689 0.0 10071048
12:00+10w8104477 0.1 10071736
15:00+10w6948100 0.0 10081803
18:00+11wsw5750100 0.0 10071432
21:00+8wsw6976100 0.6 10071210
19 september, sun
sun1900:00+7wsw6986100 2.2 10061160
03:00+6w61082100 0.3 1006748
06:00+6w41082100 0.4 1007645
09:00+5w711779 0.1 1008803
12:00+8w8105197 0.1 10091743
15:00+8w91145100 0.1 10102056
18:00+6w81156100 0.1 10111681
21:00+5w7126190 0.0 10121045
20 september, mon
mon2000:00+4w7127272 0.0 1012873
03:00+3w6137377 0.0 1013492
06:00+5w7125998 0.0 1014841
09:00+6w81160100 0.0 10141193
12:00+7wnw91150100 0.0 10151665
15:00+6wnw8105699 0.0 10171436
18:00+6nw795998 0.1 10181366
21:00+4wnw6106998 0.1 1019745
21 september, tue
tue2100:00+3nw698499 0.1 1021706
03:00+3nw5972100 0.0 1021926
06:00+3nw6973100 0.1 1022840
09:00+4nw6872100 0.1 1024873
12:00+5nw6760100 0.2 10241327
15:00+5wnw6762100 0.1 10241309
18:00+5wnw6758100 0.1 10241241
21:00+3wnw346659 0.0 102485
22 september, wed
wed2200:00+1wnw33755 0.0 102333
03:000wsw347915 0.0 102249
06:000wsw348059 0.0 102261
09:00+4w356092 0.0 1021223
12:00+8nw3444100 0.0 1021888
15:00+9nw564692 0.0 10211621
18:00+7nnw4656100 0.0 10221135
21:00+5n4663100 0.0 1024793